Location: Tierra del Sol
(32.6128°N, 116.3319°W)
Time: 01:17:01
(UTC-07:00)

Amateur Radio Satellites - All Passes

Search period start: 02 May 2016 00:47
Search period end: 03 May 2016 00:47
Location: Tierra del Sol, 32.6128°N, 116.3319°W

Satellite Date Start Highest point End Downlink Frequencies (MHz)
Time Altitude Azimuth
GONETS M04 02 May 00:48:37 00:57:27 84° 95° (E) 01:06:20
VELOX 1 02 May 00:55:31 00:57:35 13° 267° (W) 00:59:39 145.980
DX 1 02 May 00:55:37 00:57:55 14° 266° (W) 01:00:12 434.975-435.025
UKube-1 02 May 01:04:05 01:06:14 14° 266° (W) 01:08:24 .
CUSAT 1 02 May 01:20:57 01:27:04 27° 74° (ENE) 01:33:34 437.405
JAS-2 02 May 01:23:44 01:31:24 55° 99° (E) 01:38:56 435.910
Oscar 19 02 May 01:25:26 01:29:48 27° 97° (E) 01:34:09 437.125/150
QB50P2 02 May 01:25:49 01:27:32 12° 293° (WNW) 01:29:15 145.880/145.840
DUCHIFAT 1 02 May 01:26:25 01:28:36 14° 292° (WNW) 01:30:45 145.980
POLYITAN 1 02 May 01:28:03 01:29:40 12° 293° (WNW) 01:31:17 437.675
PCSat 02 May 01:29:29 01:34:55 74° 64° (ENE) 01:40:18 145.827
SRMSAT 02 May 01:30:55 01:33:18 12° 197° (SSW) 01:35:42 437.500
POPSAT HIP 1 02 May 01:31:07 01:32:32 11° 293° (WNW) 01:33:55 437.405
Cosmos 2499 02 May 01:34:07 01:41:17 89° 272° (W) 01:48:23 435.465 / 435.565
QB50P1 02 May 01:35:18 01:35:49 10° 294° (WNW) 01:36:21 145.935-145.965
SPROUT 02 May 01:36:21 01:38:02 12° 267° (W) 01:39:44 437.525
ITUPSAT 1 02 May 01:36:35 01:40:38 28° 70° (ENE) 01:44:41 437.325
SWISSCUBE 02 May 01:46:04 01:50:31 41° 73° (ENE) 01:54:58 437.505
DANDE 02 May 01:54:31 01:59:56 24° 76° (ENE) 02:06:02 436.750
O/OREOS (USA 219) 02 May 01:59:53 02:03:51 31° 257° (WSW) 02:07:47 437.305
RS-15 02 May 02:00:01 02:03:43 12° 346° (NNW) 02:07:29 29.354- 29.394
TISAT 1 02 May 02:12:56 02:15:28 15° 266° (W) 02:18:01 437.305
BEESAT 02 May 02:19:01 02:23:47 88° 81° (E) 02:28:34 436.000
ITAMSAT 1 02 May 02:42:05 02:46:10 23° 96° (E) 02:50:15 435.822/435.867
GONETS M04 02 May 02:50:03 02:55:14 17° 292° (WNW) 03:00:27
Gurwin Techsat 1B 02 May 02:51:00 02:56:20 79° 103° (ESE) 03:01:38 435.225
MOZHAYETS 4 02 May 03:00:04 03:02:47 16° 68° (ENE) 03:05:31
CUSAT 1 02 May 03:02:04 03:09:20 57° 266° (W) 03:17:12 437.405
KKS-1 02 May 03:02:14 03:06:02 28° 71° (ENE) 03:09:51 437.445
BEESAT 3 02 May 03:02:32 03:04:52 15° 52° (NE) 03:07:12 437.485
Oscar 19 02 May 03:04:35 03:09:00 29° 290° (WNW) 03:13:24 437.125/150
JAS-2 02 May 03:09:31 03:15:52 28° 294° (WNW) 03:22:13 435.910
BEESAT 2 02 May 03:09:31 03:10:14 10° 49° (NE) 03:10:57 435.950
AO-7 02 May 03:14:19 03:20:15 21° 96° (E) 03:26:10 29.400- 29.500
ITUPSAT 1 02 May 03:14:37 03:18:23 23° 264° (W) 03:22:10 437.325
PCSat 02 May 03:16:25 03:17:35 11° 258° (WSW) 03:18:47 145.827
STARS 02 May 03:21:39 03:25:08 23° 70° (ENE) 03:28:37 437.465
SWISSCUBE 02 May 03:25:36 03:28:26 16° 266° (W) 03:31:15 437.505
Cosmos 2499 02 May 03:33:59 03:35:18 11° 292° (WNW) 03:36:37 435.465 / 435.565
DANDE 02 May 03:36:04 03:42:50 60° 265° (W) 03:50:52 436.750
RS-15 02 May 04:17:53 04:24:22 15° 25° (NNE) 04:30:52 29.354- 29.394
ITAMSAT 1 02 May 04:21:01 04:25:36 33° 290° (WNW) 04:30:11 435.822/435.867
HORYU 2 02 May 04:25:59 04:28:29 15° 94° (E) 04:30:59 437.375
Gurwin Techsat 1B 02 May 04:34:24 04:35:32 11° 297° (WNW) 04:36:41 435.225
MOZHAYETS 4 02 May 04:35:19 04:39:36 39° 261° (W) 04:43:52
BEESAT 3 02 May 04:39:04 04:42:42 36° 247° (WSW) 04:46:18 437.485
KKS-1 02 May 04:39:09 04:42:32 21° 264° (W) 04:45:56 437.445
CUBESAT XI-V 02 May 04:42:02 04:45:28 21° 70° (ENE) 04:48:54 437.345
BEESAT 2 02 May 04:44:31 04:48:26 59° 245° (WSW) 04:52:19 435.950
STARS 02 May 04:57:41 05:01:20 25° 263° (W) 05:05:00 437.465
AO-7 02 May 05:05:13 05:13:28 69° 290° (WNW) 05:21:44 29.400- 29.500
YUBILEINY 02 May 05:21:14 05:28:39 30° 74° (ENE) 05:36:03 435.215
CUTE-I 02 May 05:46:03 05:47:53 12° 92° (E) 05:49:42 437.470
NOAA 18 02 May 05:50:39 05:54:29 19° 95° (E) 05:58:17 137.9125
BRITE-PL 02 May 05:58:02 06:01:58 19° 93° (E) 06:05:48 437.365/2234.400
Cosmos 2491 02 May 05:58:45 06:06:16 33° 86° (E) 06:13:47 435.465 / 435.565
HORYU 2 02 May 06:01:04 06:05:08 37° 288° (WNW) 06:09:11 437.375
SO-50 02 May 06:03:15 06:06:37 19° 109° (ESE) 06:10:00 436.795
AIST 2 02 May 06:09:42 06:13:51 69° 62° (ENE) 06:17:56 435.215
CUBESAT XI-V 02 May 06:18:39 06:22:37 29° 263° (W) 06:26:38 437.345
LilacSat-2 02 May 06:24:18 06:27:26 24° 96° (E) 06:30:33 437.200
Cubesat XI-IV 02 May 06:27:37 06:32:25 34° 98° (E) 06:37:12 437.490
NOAA 15 02 May 06:28:07 06:33:19 55° 101° (E) 06:38:31 137.62
RS-15 02 May 06:29:00 06:40:53 51° 54° (NE) 06:52:38 29.354- 29.394
ISS 02 May 06:39:25 06:42:32 45° 132° (SE) 06:45:40 145.825
AO-7 02 May 07:02:00 07:04:43 12° 308° (NW) 07:07:27 29.400- 29.500
GOMX 1 02 May 07:12:34 07:17:49 49° 99° (E) 07:22:47 467.674
DOVE 4 02 May 07:13:08 07:17:01 22° 94° (E) 07:20:42 437.250
YUBILEINY 02 May 07:17:23 07:25:34 48° 271° (W) 07:33:48 435.215
STRAND 1 02 May 07:17:56 07:23:02 88° 78° (ENE) 07:28:10 437.568
Cosmos 2504 02 May 07:21:35 07:28:57 47° 80° (E) 07:36:48 435.465 / 435.565
CUTE-I 02 May 07:23:01 07:28:17 65° 286° (WNW) 07:33:33 437.470
NOAA 18 02 May 07:30:07 07:35:15 43° 289° (WNW) 07:40:22 137.9125
BRITE-PL 02 May 07:35:08 07:40:35 48° 287° (WNW) 07:45:54 437.365/2234.400
SO-50 02 May 07:42:08 07:46:45 41° 303° (WNW) 07:51:25 436.795
M-CUBED/EXP-1 PRIME 02 May 07:50:30 07:54:22 82° 106° (ESE) 07:57:55 437.505
Cosmos 2491 02 May 07:54:24 08:02:43 45° 282° (WNW) 08:11:07 435.465 / 435.565
LilacSat-2 02 May 07:59:06 08:01:31 16° 290° (WNW) 08:03:55 437.200
PRISM 02 May 08:00:16 08:04:08 45° 74° (ENE) 08:08:02 437.425
CINEMA 3 02 May 08:01:43 08:05:01 20° 94° (E) 08:08:13 145.822/145.860
Cubesat XI-IV 02 May 08:08:04 08:12:16 24° 292° (WNW) 08:16:27 437.490
NOAA 15 02 May 08:09:32 08:12:34 16° 295° (WNW) 08:15:37 137.62
AUBIESAT-1 02 May 08:09:48 08:13:35 67° 288° (WNW) 08:17:05 437.475
CANX-2 02 May 08:09:51 08:13:27 27° 97° (E) 08:17:01 2200.000
HO-68 02 May 08:13:06 08:19:34 36° 99° (E) 08:25:59 435.675
ISS 02 May 08:17:08 08:19:10 15° 327° (NNW) 08:21:12 145.825
PHONESAT 2.4 02 May 08:30:51 08:32:46 15° 142° (SE) 08:34:42 2401.200-2431.200
RS-15 02 May 08:41:50 08:53:10 45° 253° (WSW) 09:04:22 29.354- 29.394
CUTE 1.7 + AOD 2 02 May 08:42:18 08:46:28 60° 101° (E) 08:50:38 437.475
UWE-3 02 May 08:48:14 08:49:51 12° 93° (E) 08:51:27 435.000/436.395/437.385
DOVE 4 02 May 08:50:12 08:54:41 32° 289° (WNW) 08:58:58 437.250
GOMX 1 02 May 08:51:54 08:55:21 18° 294° (WNW) 08:58:43 467.674
CUBEBUG 2 02 May 08:52:57 08:56:15 22° 95° (E) 08:59:29 437.445
SEEDS 02 May 09:10:40 09:14:52 83° 283° (WNW) 09:19:04 437.485
COMPASS 1 02 May 09:15:10 09:19:20 77° 100° (E) 09:23:30 437.405
Cosmos 2504 02 May 09:15:40 09:21:56 28° 273° (W) 09:28:34 435.465 / 435.565
ZACube-1 02 May 09:19:03 09:22:03 19° 95° (E) 09:25:01 437.345
DELFI C3 02 May 09:31:32 09:33:37 14° 94° (E) 09:35:42 145.870
CINEMA 3 02 May 09:38:13 09:42:09 29° 289° (WNW) 09:45:56 145.822/145.860
PRISM 02 May 09:39:09 09:39:39 10° 267° (W) 09:40:09 437.425
CANX-2 02 May 09:46:05 09:49:05 19° 290° (WNW) 09:52:06 2200.000
AAUSAT CUBESAT 2 02 May 09:46:43 09:50:45 52° 285° (WNW) 09:54:47 437.432
UNISAT 6 02 May 09:51:59 09:56:09 33° 73° (ENE) 10:00:18 437.425
HO-68 02 May 10:00:46 10:07:09 36° 293° (WNW) 10:13:30 435.675
Oscar 11 02 May 10:01:20 10:05:39 81° 103° (ESE) 10:09:57 145.826/435.025
PHONESAT 2.4 02 May 10:06:14 10:09:22 70° 336° (NNW) 10:12:30 2401.200-2431.200
TIGRISAT 02 May 10:09:19 10:13:50 50° 75° (ENE) 10:18:18 435.000
FUNcube-1 02 May 10:12:15 10:16:25 88° 93° (E) 10:20:33 145.935
UWE-3 02 May 10:22:32 10:26:29 40° 286° (WNW) 10:30:22 435.000/436.395/437.385
HUMSAT D 02 May 10:26:45 10:30:17 28° 97° (E) 10:33:47 437.325/437.525
CUBEBUG 2 02 May 10:29:23 10:32:47 23° 289° (WNW) 10:36:06 437.445
ANTELSAT 02 May 10:33:40 10:38:20 80° 258° (WSW) 10:42:59 437.575/2403.000
QB50P2 02 May 10:37:04 10:40:07 19° 70° (ENE) 10:43:10 145.880/145.840
DUCHIFAT 1 02 May 10:37:51 10:40:33 17° 69° (ENE) 10:43:14 145.980
POLYITAN 1 02 May 10:39:10 10:42:16 20° 70° (ENE) 10:45:21 437.675
POPSAT HIP 1 02 May 10:41:50 10:45:00 20° 70° (ENE) 10:48:10 437.405
AIST 1 02 May 10:43:55 10:45:31 12° 73° (ENE) 10:47:08
QB50P1 02 May 10:44:56 10:48:16 22° 70° (ENE) 10:51:36 145.935-145.965
ZACube-1 02 May 10:54:51 10:58:18 25° 289° (WNW) 11:01:41 437.345
DELFI C3 02 May 11:04:58 11:08:32 32° 287° (WNW) 11:12:06 145.870
GONETS M04 02 May 11:05:24 11:13:05 33° 75° (ENE) 11:20:40
VELOX 1 02 May 11:13:36 11:15:11 12° 93° (E) 11:16:46 145.980
NANOSAT C BR1 02 May 11:19:04 11:23:15 56° 75° (ENE) 11:27:26 145.865
BUGSAT 1 02 May 11:21:02 11:24:28 25° 71° (ENE) 11:27:57 437.445
AO-85 02 May 11:24:29 11:27:53 17° 107° (ESE) 11:31:19 145.980
UNISAT 6 02 May 11:29:36 11:32:52 19° 265° (W) 11:36:07 437.425
Cosmos 2499 02 May 11:30:05 11:36:15 24° 74° (ENE) 11:42:42 435.465 / 435.565
JAS-2 02 May 11:35:12 11:37:28 12° 58° (ENE) 11:39:48 435.910
AISAT 02 May 11:43:34 11:47:29 29° 97° (E) 11:51:22 437.250
PHONESAT 2.4 02 May 11:44:01 11:46:33 22° 351° (N) 11:49:05 2401.200-2431.200
TIGRISAT 02 May 11:48:46 11:50:41 12° 267° (W) 11:52:37 435.000
SPROUT 02 May 11:51:11 11:52:01 10° 92° (E) 11:52:50 437.525
ESTCUBE 1 02 May 11:59:42 12:04:14 65° 102° (ESE) 12:08:43 437.505/2401.250
HUMSAT D 02 May 12:03:02 12:05:40 17° 290° (WNW) 12:08:17 437.325/437.525
QB50P2 02 May 12:12:00 12:15:42 28° 263° (W) 12:19:24 145.880/145.840
DUCHIFAT 1 02 May 12:12:07 12:15:56 32° 262° (W) 12:19:48 145.980
POLYITAN 1 02 May 12:14:11 12:17:51 27° 263° (W) 12:21:32 437.675
POPSAT HIP 1 02 May 12:16:59 12:20:34 26° 263° (W) 12:24:13 437.405
AIST 1 02 May 12:19:08 12:23:20 44° 267° (W) 12:27:30
QB50P1 02 May 12:20:27 12:23:53 24° 264° (W) 12:27:21 145.935-145.965
CUBEBUG 1 02 May 12:21:18 12:25:45 81° 101° (E) 12:30:10 437.445
50 SAT 02 May 12:32:52 12:36:24 47° 284° (WNW) 12:39:55 437.505
Oscar 19 02 May 12:38:03 12:42:14 25° 69° (ENE) 12:46:26 437.125/150
DX 1 02 May 12:45:57 12:50:15 57° 285° (WNW) 12:54:32 434.975-435.025
VELOX 1 02 May 12:47:33 12:51:51 48° 286° (WNW) 12:56:08 145.980
UKube-1 02 May 12:53:14 12:57:30 57° 285° (WNW) 13:01:45 .
BUGSAT 1 02 May 12:56:34 12:59:46 21° 264° (W) 13:02:59 437.445
GONETS M04 02 May 13:01:49 13:09:55 44° 272° (W) 13:17:58
AO-85 02 May 13:02:37 13:07:57 55° 301° (WNW) 13:13:18 145.980
JAS-2 02 May 13:15:36 13:21:20 86° 258° (WSW) 13:27:54 435.910
AISAT 02 May 13:20:30 13:23:43 20° 291° (WNW) 13:26:57 437.250
PHONESAT 2.4 02 May 13:21:34 13:24:03 21° 8° (N) 13:26:33 2401.200-2431.200
Cosmos 2499 02 May 13:21:57 13:29:34 57° 268° (W) 13:37:46 435.465 / 435.565
SPROUT 02 May 13:24:03 13:28:11 48° 285° (WNW) 13:32:18 437.525
SWISSCUBE 02 May 13:52:03 13:54:48 15° 94° (E) 13:57:33 437.505
ITAMSAT 1 02 May 13:55:54 13:59:56 23° 68° (ENE) 14:03:57 435.822/435.867
TISAT 1 02 May 13:59:27 14:03:39 70° 285° (WNW) 14:07:49 437.305
Gurwin Techsat 1B 02 May 14:07:27 14:12:45 80° 76° (ENE) 14:18:05 435.225
AO-7 02 May 14:09:24 14:15:07 21° 58° (ENE) 14:20:50 29.400- 29.500
Oscar 19 02 May 14:16:51 14:21:22 31° 263° (W) 14:25:55 437.125/150
CUSAT 1 02 May 14:23:18 14:24:39 12° 83° (E) 14:26:08 437.405
BEESAT 02 May 14:24:02 14:28:16 32° 98° (E) 14:32:29 436.000
PCSat 02 May 14:25:15 14:28:49 18° 105° (ESE) 14:32:24 145.827
O/OREOS (USA 219) 02 May 14:27:46 14:32:12 50° 105° (ESE) 14:36:39 437.305
ISS 02 May 14:46:51 14:50:07 78° 44° (NE) 14:53:21 145.825
PHONESAT 2.4 02 May 14:58:11 15:01:19 58° 24° (NNE) 15:04:25 2401.200-2431.200
ITUPSAT 1 02 May 15:18:27 15:23:10 63° 285° (WNW) 15:27:52 437.325
SWISSCUBE 02 May 15:28:14 15:32:43 42° 287° (WNW) 15:37:13 437.505
ITAMSAT 1 02 May 15:34:31 15:39:10 33° 262° (W) 15:43:50 435.822/435.867
AO-7 02 May 15:58:45 16:07:00 75° 254° (WSW) 16:15:19 29.400- 29.500
BEESAT 02 May 16:02:16 16:05:49 21° 291° (WNW) 16:09:21 436.000
CUSAT 1 02 May 16:03:46 16:06:19 21° 289° (WNW) 16:09:22 437.405
PCSat 02 May 16:06:34 16:11:46 47° 299° (WNW) 16:17:01 145.827
O/OREOS (USA 219) 02 May 16:09:43 16:11:52 13° 300° (WNW) 16:14:02 437.305
SO-50 02 May 16:17:54 16:22:28 51° 59° (ENE) 16:26:52 436.795
Cosmos 2491 02 May 16:18:17 16:20:23 11° 64° (ENE) 16:22:27 435.465 / 435.565
KKS-1 02 May 16:33:18 16:37:47 77° 283° (WNW) 16:42:12 437.445
MOZHAYETS 4 02 May 16:34:24 16:38:57 67° 101° (E) 16:43:30
PHONESAT 2.4 02 May 16:35:40 16:37:58 19° 217° (SW) 16:40:16 2401.200-2431.200
DANDE 02 May 16:45:15 16:46:51 14° 289° (WNW) 16:48:36 436.750
STARS 02 May 16:50:39 16:55:05 83° 103° (ESE) 16:59:27 437.465
HORYU 2 02 May 16:53:56 16:58:23 74° 257° (WSW) 17:02:51 437.375
CUTE-I 02 May 17:03:30 17:06:05 14° 64° (ENE) 17:08:39 437.470
JUGNU 02 May 17:04:00 17:07:08 15° 165° (SSE) 17:10:16 437.505
BRITE-PL 02 May 17:06:23 17:07:54 11° 63° (ENE) 17:09:26 437.365/2234.400
NOAA 18 02 May 17:12:22 17:16:47 25° 67° (ENE) 17:21:11 137.9125
NOAA 15 02 May 17:43:38 17:48:45 55° 73° (ENE) 17:53:54 137.62
Cubesat XI-IV 02 May 17:45:12 17:50:03 36° 71° (ENE) 17:54:53 437.490
SO-50 02 May 18:00:25 18:02:23 13° 253° (WSW) 18:04:20 436.795
Cosmos 2491 02 May 18:09:51 18:18:41 75° 83° (E) 18:27:25 435.465 / 435.565
DOVE 4 02 May 18:14:36 18:17:26 15° 66° (ENE) 18:20:19 437.250
GOMX 1 02 May 18:15:53 18:20:13 31° 70° (ENE) 18:24:48 467.674
YUBILEINY 02 May 18:16:09 18:24:07 41° 88° (E) 18:32:02 435.215
CUBESAT XI-V 02 May 18:18:50 18:23:34 85° 280° (W) 18:28:15 437.345
BEESAT 3 02 May 18:25:04 18:28:59 73° 299° (WNW) 18:32:56 437.485
M-CUBED/EXP-1 PRIME 02 May 18:31:26 18:36:01 52° 70° (ENE) 18:40:34 437.505
BEESAT 2 02 May 18:32:01 18:35:58 72° 115° (ESE) 18:39:57 435.950
LilacSat-2 02 May 18:35:02 18:38:54 65° 260° (W) 18:42:45 437.200
HO-68 02 May 18:39:07 18:43:24 17° 60° (ENE) 18:47:41 435.675
CUTE-I 02 May 18:40:17 18:45:33 62° 259° (W) 18:50:49 437.470
BRITE-PL 02 May 18:40:58 18:45:35 65° 259° (W) 18:50:39 437.365/2234.400
AUBIESAT-1 02 May 18:50:13 18:54:50 69° 72° (ENE) 18:59:26 437.475
JUGNU 02 May 18:51:01 18:55:30 22° 175° (S) 19:00:00 437.505
NOAA 18 02 May 18:52:11 18:57:12 35° 261° (W) 19:02:13 137.9125
CINEMA 3 02 May 18:59:35 19:01:58 13° 66° (ENE) 19:04:21 145.822/145.860
CANX-2 02 May 19:00:28 19:01:49 11° 67° (ENE) 19:03:09 2200.000
Cubesat XI-IV 02 May 19:26:02 19:30:07 22° 264° (W) 19:34:13 437.490
NOAA 15 02 May 19:26:09 19:28:48 14° 267° (W) 19:31:27 137.62
CUTE 1.7 + AOD 2 02 May 19:31:02 19:34:24 24° 71° (ENE) 19:37:46 437.475
STRAND 1 02 May 19:33:11 19:38:02 43° 99° (E) 19:42:53 437.568
CUBEBUG 2 02 May 19:47:41 19:49:52 13° 67° (ENE) 19:52:02 437.445
DOVE 4 02 May 19:49:39 19:54:32 54° 261° (W) 19:59:40 437.250
SRMSAT 02 May 19:50:42 19:54:41 18° 169° (SSE) 19:58:40 437.500
GOMX 1 02 May 19:54:20 19:58:15 24° 266° (W) 20:02:23 467.674
Cosmos 2504 02 May 19:55:20 20:02:09 43° 90° (E) 20:08:48 435.465 / 435.565
SEEDS 02 May 19:57:59 20:01:47 35° 74° (ENE) 20:05:36 437.485
COMPASS 1 02 May 20:01:51 20:05:21 27° 72° (ENE) 20:08:50 437.405
AIST 2 02 May 20:02:55 20:06:49 42° 113° (ESE) 20:10:44 435.215
M-CUBED/EXP-1 PRIME 02 May 20:08:22 20:10:42 14° 262° (W) 20:13:03 437.505
Cosmos 2491 02 May 20:09:02 20:14:28 18° 279° (W) 20:19:52 435.465 / 435.565
ZACube-1 02 May 20:12:57 20:13:34 10° 66° (ENE) 20:14:11 437.345
YUBILEINY 02 May 20:13:00 20:20:49 36° 284° (WNW) 20:28:40 435.215
HO-68 02 May 20:23:08 20:30:17 77° 255° (WSW) 20:37:28 435.675
AAUSAT CUBESAT 2 02 May 20:32:11 20:36:10 52° 75° (ENE) 20:40:10 437.432
CANX-2 02 May 20:33:08 20:37:12 47° 261° (W) 20:41:17 2200.000
CINEMA 3 02 May 20:33:37 20:38:31 58° 260° (W) 20:43:29 145.822/145.860
JUGNU 02 May 20:39:26 20:43:55 22° 185° (S) 20:48:26 437.505
RS-15 02 May 20:46:41 20:57:04 47° 108° (ESE) 21:07:56 29.354- 29.394
Oscar 11 02 May 20:51:41 20:55:34 34° 73° (ENE) 20:59:26 145.826/435.025
FUNcube-1 02 May 21:02:53 21:07:05 38° 74° (ENE) 21:11:14 145.935
CUTE 1.7 + AOD 2 02 May 21:06:54 21:10:08 21° 264° (W) 21:13:23 437.475
STRAND 1 02 May 21:13:27 21:16:50 18° 293° (WNW) 21:20:13 437.568
UWE-3 02 May 21:13:52 21:18:32 87° 82° (E) 21:23:10 435.000/436.395/437.385
HUMSAT D 02 May 21:15:29 21:17:09 12° 68° (ENE) 21:18:49 437.325/437.525
PRISM 02 May 21:21:13 21:25:17 55° 285° (WNW) 21:29:22 437.425
CUBEBUG 2 02 May 21:21:22 21:25:59 53° 260° (W) 21:30:36 437.445
SEEDS 02 May 21:35:26 21:37:34 14° 266° (W) 21:39:43 437.485
COMPASS 1 02 May 21:38:04 21:40:52 18° 265° (W) 21:43:41 437.405
SRMSAT 02 May 21:38:35 21:43:16 24° 179° (S) 21:47:57 437.500
AO-85 02 May 21:39:44 21:44:06 38° 56° (NE) 21:48:05 145.980
AIST 2 02 May 21:43:09 21:45:29 15° 309° (NW) 21:47:50 435.215
ZACube-1 02 May 21:44:48 21:49:18 61° 259° (W) 21:53:46 437.345
DELFI C3 02 May 21:45:53 21:49:48 73° 78° (ENE) 21:53:45 145.870
Cosmos 2504 02 May 21:49:36 21:55:34 27° 285° (WNW) 22:01:26 435.465 / 435.565
TIGRISAT 02 May 22:07:17 22:09:25 13° 93° (E) 22:11:31 435.000
Oscar 11 02 May 22:29:08 22:31:45 16° 266° (W) 22:34:21 145.826/435.025
JUGNU 02 May 22:29:12 22:32:19 14° 195° (SSW) 22:35:27 437.505
ANTELSAT 02 May 22:30:36 22:34:19 28° 97° (E) 22:37:58 437.575/2403.000
AISAT 02 May 22:37:40 22:40:20 16° 68° (ENE) 22:43:01 437.250
FUNcube-1 02 May 22:40:46 22:43:24 15° 266° (W) 22:46:01 145.935
HUMSAT D 02 May 22:48:19 22:52:22 44° 261° (W) 22:56:24 437.325/437.525
ESTCUBE 1 02 May 22:54:57 22:58:57 33° 72° (ENE) 23:02:59 437.505/2401.250
RS-15 02 May 22:58:47 23:09:23 46° 308° (NW) 23:20:38 29.354- 29.394
50 SAT 02 May 23:07:06 23:10:25 33° 74° (ENE) 23:13:44 437.505
NANOSAT C BR1 02 May 23:09:58 23:11:50 13° 94° (E) 23:13:40 145.865
CUBEBUG 1 02 May 23:12:48 23:16:48 36° 73° (ENE) 23:20:50 437.445
AO-85 02 May 23:21:27 23:24:06 16° 253° (WSW) 23:26:37 145.980
UNISAT 6 02 May 23:24:32 23:28:46 58° 284° (WNW) 23:32:56 437.425
SRMSAT 02 May 23:27:33 23:31:51 20° 189° (S) 23:36:07 437.500
DX 1 02 May 23:36:34 23:40:53 67° 75° (ENE) 23:45:13 434.975-435.025
VELOX 1 02 May 23:39:52 23:44:16 83° 77° (ENE) 23:48:44 145.980
TIGRISAT 02 May 23:42:16 23:46:14 37° 287° (WNW) 23:50:08 435.000
UKube-1 02 May 23:42:56 23:47:11 64° 75° (ENE) 23:51:29 .
GONETS M04 03 May 00:00:12 00:08:25 45° 88° (E) 00:16:37
DUCHIFAT 1 03 May 00:00:22 00:04:29 53° 100° (E) 00:08:34 145.980
QB50P2 03 May 00:00:48 00:05:00 65° 100° (E) 00:09:11 145.880/145.840
POLYITAN 1 03 May 00:02:58 00:07:10 66° 101° (E) 00:11:20 437.675
Cosmos 2499 03 May 00:03:41 00:08:16 19° 84° (E) 00:12:49 435.465 / 435.565
POPSAT HIP 1 03 May 00:05:31 00:09:45 69° 101° (E) 00:13:55 437.405
ANTELSAT 03 May 00:07:49 00:10:48 19° 291° (WNW) 00:13:46 437.575/2403.000
QB50P1 03 May 00:08:44 00:12:58 77° 100° (E) 00:17:10 145.935-145.965
AISAT 03 May 00:12:21 00:16:27 37° 261° (W) 00:20:36 437.250
SPROUT 03 May 00:12:37 00:16:53 68° 76° (ENE) 00:21:12 437.525
JAS-2 03 May 00:30:24 00:36:05 21° 92° (E) 00:41:38 435.910
ESTCUBE 1 03 May 00:32:53 00:35:48 17° 265° (W) 00:38:43 437.505/2401.250
50 SAT 03 May 00:43:30 00:44:18 11° 266° (W) 00:45:05 437.505
